Change the Weather History Date:

Wednesday, November 17, 2010

  Actual Average Record
Temperature  
Mean Temperature 49 °F 48 °F  
Max Temperature 54 °F 55 °F 71 °F (1965)
Min Temperature 43 °F 43 °F 26 °F (1916)
Degree Days  
Heating Degree Days 16 16  
Month to date heating degree days 212 256  
Since 1 July heating degree days 1203 1222  
Cooling Degree Days 0 0  
Month to date cooling degree days 0 0  
Year to date cooling degree days 3 2  
Moisture  
Dew Point 41 °F    
Average Humidity 74    
Maximum Humidity 83    
Minimum Humidity 66    
Precipitation  
Precipitation 0.69 in 0.35 in 2.21 in (1950)
Month to date precipitation 2.58 5.33  
Year to date precipitation 50.40 48.88  
Sea Level Pressure  
Sea Level Pressure 30.06 in    
Wind  
Wind Speed 14 mph (SSE)    
Max Wind Speed 27 mph    
Max Gust Speed 35 mph    
Visibility 9 miles    
Events      
T = Trace of Precipitation, MM = Missing Value Source: NWS Daily Summary

Daily Weather History Graph

Daily Weather History Graph

Search for Another Location

Airport or City:

Trip Planner

Search our weather history database for the weather conditions in past years. The results will help you decide how hot, cold, wet, or windy it might be!

Date:

Astronomy

Nov. 17, 2010 Rise Set
Actual Time 7:13 AM PST 4:50 PM PST
Civil Twilight 6:42 AM PST 5:21 PM PST
Nautical Twilight 6:07 AM PST 5:56 PM PST
Astronomical Twilight 5:33 AM PST 6:29 PM PST
Moon 2:29 PM PST (11/17) 3:12 AM PST (11/17)
Length of Visible Light 10h 39m
Length of Day
9h 37m
Waxing Gibbous, 85% of the Moon is Illuminated
Nov 17
Waxing Gibbous
Nov 21
Full
Nov 28
Last Quarter
Dec 5
New
Dec 13
First Quarter

Hourly Weather History & Observations

Time (PST) Temp. Windchill Dew Point Humidity Pressure Visibility Wind Dir Wind Speed Gust Speed Precip Events Conditions
12:15 AM 44.6 °F 41.4 °F 39.2 °F 81% 30.16 in 1.0 mi SSE 5.8 mph - N/A   Overcast
12:35 AM 44.6 °F 40.2 °F 37.4 °F 76% 30.16 in 0.5 mi SSE 8.1 mph - N/A   Overcast
12:55 AM 44.6 °F 40.7 °F 37.4 °F 76% 30.15 in 0.2 mi SSE 6.9 mph - N/A   Overcast
1:15 AM 44.6 °F 39.7 °F 39.2 °F 81% 30.15 in 0.5 mi SE 9.2 mph - N/A   Overcast
1:35 AM 42.8 °F 38.0 °F 37.4 °F 81% 30.15 in 0.5 mi SSE 8.1 mph - N/A   Overcast
1:55 AM 42.8 °F 38.0 °F 37.4 °F 81% 30.15 in 0.8 mi SE 8.1 mph - N/A   Overcast
2:15 AM 42.8 °F 37.5 °F 37.4 °F 81% 30.15 in 0.8 mi SSE 9.2 mph - N/A   Overcast
2:35 AM 42.8 °F 37.5 °F 37.4 °F 81% 30.15 in 1.0 mi SE 9.2 mph - N/A   Overcast
2:55 AM 44.6 °F 40.2 °F 39.2 °F 81% 30.17 in 2.5 mi SE 8.1 mph - N/A   Overcast
3:15 AM 44.6 °F 39.2 °F 39.2 °F 81% 30.16 in 10.0 mi SE 10.4 mph - N/A   Overcast
3:35 AM 44.6 °F 39.7 °F 39.2 °F 81% 30.16 in 10.0 mi SE 9.2 mph - N/A   Overcast
3:55 AM 44.6 °F 38.4 °F 37.4 °F 76% 30.15 in 10.0 mi SE 12.7 mph - N/A   Overcast
4:15 AM 44.6 °F 38.8 °F 37.4 °F 76% 30.14 in 10.0 mi SSE 11.5 mph - N/A   Overcast
4:35 AM 44.6 °F 38.1 °F 37.4 °F 76% 30.14 in 10.0 mi SSE 13.8 mph - N/A   Overcast
4:55 AM 44.6 °F 38.8 °F 37.4 °F 76% 30.13 in 10.0 mi SSE 11.5 mph - N/A   Overcast
5:15 AM 44.6 °F 39.2 °F 39.2 °F 81% 30.13 in 10.0 mi SSE 10.4 mph - N/A   Overcast
5:35 AM 44.6 °F 39.7 °F 39.2 °F 81% 30.13 in 10.0 mi SSE 9.2 mph - N/A   Overcast
5:55 AM 44.6 °F 38.8 °F 39.2 °F 81% 30.12 in 10.0 mi SSE 11.5 mph - N/A   Overcast
6:15 AM 44.6 °F 39.7 °F 39.2 °F 81% 30.12 in 10.0 mi SSE 9.2 mph - N/A   Overcast
6:35 AM 44.6 °F 40.2 °F 39.2 °F 81% 30.12 in 10.0 mi SSE 8.1 mph - N/A   Overcast
6:55 AM 44.6 °F 38.8 °F 39.2 °F 81% 30.11 in 10.0 mi SE 11.5 mph - N/A   Overcast
7:15 AM 44.6 °F 38.8 °F 39.2 °F 81% 30.11 in 10.0 mi SSE 11.5 mph - N/A   Overcast
7:35 AM 44.6 °F 38.4 °F 39.2 °F 81% 30.10 in 10.0 mi SSE 12.7 mph - N/A   Overcast
7:55 AM 46.4 °F 40.7 °F 39.2 °F 76% 30.10 in 10.0 mi SSE 12.7 mph - N/A   Overcast
8:15 AM 46.4 °F 41.1 °F 39.2 °F 76% 30.10 in 10.0 mi SSE 11.5 mph - N/A   Overcast
8:35 AM 46.4 °F 41.1 °F 39.2 °F 76% 30.10 in 10.0 mi SSE 11.5 mph - N/A   Overcast
8:55 AM 46.4 °F 41.5 °F 39.2 °F 76% 30.09 in 10.0 mi SSE 10.4 mph - N/A   Overcast
9:15 AM 48.2 °F - 39.2 °F 71% 30.09 in 10.0 mi South 10.4 mph - N/A   Overcast
9:35 AM 48.2 °F - 39.2 °F 71% 30.07 in 10.0 mi South 13.8 mph - N/A   Overcast
9:55 AM 48.2 °F - 39.2 °F 71% 30.06 in 10.0 mi SSE 15.0 mph 20.7 mph N/A   Mostly Cloudy
10:15 AM 48.2 °F - 39.2 °F 71% 30.06 in 10.0 mi SSE 12.7 mph - N/A   Partly Cloudy
10:35 AM 48.2 °F - 39.2 °F 71% 30.06 in 10.0 mi South 12.7 mph - N/A   Partly Cloudy
10:55 AM 50.0 °F - 41.0 °F 71% 30.05 in 10.0 mi SSE 11.5 mph - N/A   Mostly Cloudy
11:15 AM 51.8 °F - 41.0 °F 67% 30.05 in 10.0 mi SSE 10.4 mph - N/A   Overcast
11:35 AM 51.8 °F - 41.0 °F 67% 30.04 in 10.0 mi South 13.8 mph - N/A   Scattered Clouds
11:55 AM 51.8 °F - 42.8 °F 71% 30.03 in 10.0 mi South 13.8 mph 18.4 mph N/A   Overcast
12:15 PM 51.8 °F - 42.8 °F 71% 30.02 in 10.0 mi South 10.4 mph 16.1 mph N/A   Overcast
12:35 PM 51.8 °F - 42.8 °F 71% 30.02 in 10.0 mi South 9.2 mph - N/A   Overcast
12:55 PM 51.8 °F - 42.8 °F 71% 30.01 in 10.0 mi South 9.2 mph - N/A   Overcast
1:15 PM 53.6 °F - 42.8 °F 67% 30.01 in 10.0 mi South 10.4 mph - N/A   Overcast
1:35 PM 53.6 °F - 42.8 °F 67% 30.00 in 10.0 mi South 10.4 mph - N/A   Overcast
1:55 PM 53.6 °F - 42.8 °F 67% 30.00 in 10.0 mi South 9.2 mph 16.1 mph N/A   Overcast
2:15 PM 53.6 °F - 42.8 °F 67% 29.99 in 10.0 mi South 12.7 mph 20.7 mph N/A   Overcast
2:35 PM 53.6 °F - 42.8 °F 67% 29.98 in 10.0 mi South 12.7 mph 21.9 mph N/A   Overcast
2:55 PM 53.6 °F - 42.8 °F 67% 29.98 in 10.0 mi South 13.8 mph 20.7 mph N/A   Overcast
3:15 PM 53.6 °F - 42.8 °F 67% 29.98 in 10.0 mi South 18.4 mph 25.3 mph N/A   Overcast
3:35 PM 53.6 °F - 42.8 °F 67% 29.97 in 10.0 mi SSW 15.0 mph 24.2 mph N/A   Overcast
3:55 PM 53.6 °F - 42.8 °F 67% 29.97 in 10.0 mi South 19.6 mph 29.9 mph N/A   Overcast
4:15 PM 53.6 °F - 42.8 °F 67% 29.97 in 10.0 mi South 16.1 mph 21.9 mph N/A   Overcast
4:35 PM 53.6 °F - 42.8 °F 67% 29.96 in 10.0 mi South 16.1 mph 24.2 mph N/A   Overcast
4:55 PM 53.6 °F - 42.8 °F 67% 29.95 in 10.0 mi SSW 15.0 mph 21.9 mph N/A   Overcast
5:15 PM 53.6 °F - 44.6 °F 72% 29.95 in 10.0 mi South 17.3 mph 25.3 mph N/A   Overcast
5:35 PM 53.6 °F - 44.6 °F 72% 29.94 in 10.0 mi South 18.4 mph 28.8 mph N/A   Overcast
5:55 PM 53.6 °F - 44.6 °F 72% 29.94 in 10.0 mi South 20.7 mph 26.5 mph N/A   Mostly Cloudy
6:15 PM 53.6 °F - 44.6 °F 72% 29.93 in 10.0 mi SSW 13.8 mph 21.9 mph N/A   Overcast
6:35 PM 53.6 °F - 44.6 °F 72% 29.93 in 9.0 mi SSW 16.1 mph 26.5 mph N/A   Overcast
6:55 PM 53.6 °F - 44.6 °F 72% 29.92 in 10.0 mi SSW 16.1 mph 29.9 mph N/A   Overcast
7:15 PM 53.6 °F - 44.6 °F 72% 29.91 in 10.0 mi SSW 18.4 mph 28.8 mph N/A   Mostly Cloudy
7:35 PM 53.6 °F - 44.6 °F 72% 29.91 in 10.0 mi SSW 19.6 mph 26.5 mph N/A   Overcast
7:55 PM 53.6 °F - 44.6 °F 72% 29.90 in 10.0 mi SSW 26.5 mph 33.4 mph N/A   Mostly Cloudy
8:15 PM 53.6 °F - 44.6 °F 72% 29.89 in 6.0 mi SSW 24.2 mph 40.3 mph N/A   Overcast
8:35 PM 53.6 °F - 44.6 °F 72% 29.89 in 4.0 mi SSW 18.4 mph 33.4 mph N/A   Overcast
8:55 PM 53.6 °F - 44.6 °F 72% 29.88 in 10.0 mi SSW 19.6 mph 28.8 mph N/A   Overcast
9:15 PM 53.6 °F - 44.6 °F 72% 29.88 in 10.0 mi SSW 23.0 mph 33.4 mph N/A   Overcast
9:35 PM 53.6 °F - 46.4 °F 77% 29.87 in 5.0 mi SSW 19.6 mph 32.2 mph N/A   Overcast
9:55 PM 53.6 °F - 46.4 °F 77% 29.87 in 5.0 mi SSW 21.9 mph 34.5 mph 0.01 in   Overcast
10:15 PM 53.6 °F - 46.4 °F 77% 29.86 in 5.0 mi SSW 24.2 mph 32.2 mph 0.01 in   Overcast
10:35 PM 53.6 °F - 46.4 °F 77% 29.87 in 5.0 mi SSW 23.0 mph 32.2 mph 0.02 in   Overcast
10:55 PM 53.6 °F - 46.4 °F 77% 29.87 in 7.0 mi SSW 21.9 mph 33.4 mph 0.06 in   Overcast
11:15 PM 51.8 °F - 44.6 °F 76% 29.89 in 3.0 mi NW 23.0 mph 33.4 mph 0.33 in   Overcast
11:35 PM 50.0 °F - 44.6 °F 82% 29.91 in 6.0 mi NW 15.0 mph 20.7 mph 0.55 in   Overcast
11:55 PM 48.2 °F - 44.6 °F 87% 29.91 in 8.0 mi NW 11.5 mph - 0.62 in   Overcast